Home   Weather   Grand Rapids   Past weeks

Flag for USA Past Weather in Grand Rapids, Michigan, USA — Yesterday and Last 2 Weeks

Now
42 °F

Passing clouds.


Feels Like: 40 °F
Forecast: 36 / 55 °F
Wind: 3 mph from South

Location: Tulip City Airport

Current Time: Feb 27, 2017 at 8:13:13 pm

Latest Report: Feb 27, 2017 at 6:53 pm


Visibility: 10 mi

Pressure: 30.14 "Hg

Humidity: 68%

Dew Point: 32 °F

Location of Grand RapidsLocation

Past Weather in Grand Rapids — Graph

°F

Grand Rapids Temperature Yesterday

Maximum temperature yesterday: 43 °F (at 3:53 pm)
Minimum temperature yesterday: 23 °F (at 4:53 am)
Average temperature yesterday: 34 °F

High & Low Weather Summary for the Past Weeks

 TemperatureHumidityPressure
High65 °F (Feb 22, 4:53 pm)97% (Feb 21, 12:04 pm)30.30 "Hg (Feb 21, 12:04 pm)
Low20 °F (Feb 16, 7:53 am)33% (Feb 20, 2:53 pm)29.41 "Hg (Feb 24, 4:53 pm)
Average41 °F71%29.86 "Hg
* Reported Feb 12 6:53 pm — Feb 27 6:53 pm, Grand Rapids, Weather by CustomWeather, © 2017

Note: Actual official high and low records may vary slightly from our data, if they occured in-between our weather recording intervals... More about our weather records

Advertising

Grand Rapids Weather History for the Previous 24 Hours

Scroll right to see more
 ConditionsComfort  
Time TempWeatherWind HumidityBarometerVisibility
6:53 pm
Mon, Feb 27
42 °FPassing clouds.3 mph68%30.14 "Hg10 mi
5:53 pm45 °FSunny.7 mph63%30.15 "Hg10 mi
4:53 pm50 °FSunny.10 mph48%30.14 "Hg10 mi
3:53 pm50 °FSunny.12 mph44%30.14 "Hg10 mi
2:53 pm50 °FSunny.12 mph44%30.16 "Hg10 mi
1:53 pm51 °FSunny.15 mph41%30.17 "Hg10 mi
12:53 pm47 °FSunny.8 mph56%30.19 "Hg10 mi
11:53 am44 °FSunny.9 mph58%30.21 "Hg10 mi
10:53 am42 °FScattered clouds.7 mph55%30.22 "Hg10 mi
9:53 am39 °FSunny.7 mph67%30.20 "Hg10 mi
8:53 am34 °FSunny.5 mph82%30.19 "Hg10 mi
7:53 am29 °FSunny.No wind89%30.18 "Hg10 mi
6:53 am30 °FClear.No wind85%30.16 "Hg10 mi
5:53 am31 °FClear.3 mph82%30.14 "Hg10 mi
4:53 am35 °FClear.6 mph75%30.13 "Hg10 mi
3:53 am36 °FClear.7 mph85%30.10 "Hg10 mi
2:53 am37 °FClear.12 mph79%30.09 "Hg10 mi
1:53 am38 °FClear.16 mph73%30.07 "Hg10 mi
12:53 am39 °FClear.20 mph70%30.06 "Hg10 mi
11:53 pm
Sun, Feb 26
40 °FPassing clouds.18 mph65%30.04 "Hg10 mi
10:53 pm41 °FPassing clouds.20 mph60%30.02 "Hg10 mi
9:53 pm41 °FMostly cloudy.14 mph62%30.01 "Hg10 mi
8:53 pm41 °FOvercast.14 mph58%30.00 "Hg10 mi
Weather by CustomWeather, © 2017

See weather overviewHow to use our weather pages